Temperature
6 7 7 7 7 7 7 7 7 7 7 7 7 7 7 7 7 7 7 7 7 7 7 7 7 7 7 7 7 7 7 7 7 7 7 7 7 6 6 6 6 6 6
6 6 6 6 6 6 6 7 7 7 7 7 7 7 7 7 7 7 7 7 7 6 6 6 6 6 6 6 7 7 7 6 6 6 6 6 6 6 6 6 6 6 5
5 5 5 6 6 6 6 6 6 6 6 6 6 6 6 6 6 6 6 6 6 6 6 6 6 6 6 6 6 6 6 6 6 6 6 6 6 5 5 5 5 5 5
4 4 5 5 5 5 5 6 6 6 6 6 6 6 6 6 6 6 6 6 6 6 6 5 5 5 6 6 6 6 5 5 5 5 5 5 5 5 5 5 5 5 4
3 4 4 4 4 4 5 5 5 5 5 5 5 5 5 5 5 5 5 5 5 5 5 5 5 5 5 5 5 5 5 5 5 5 5 4 4 4 4 4 4 4 4
2 3 3 3 3 4 4 4 4 4 4 4 4 4 4 5 5 5 5 5 5 5 5 5 5 5 5 5 4 4 4 4 4 4 4 4 4 4 4 3 3 3 3
1 2 2 2 2 3 3 3 3 3 4 4 4 4 4 4 4 4 4 4 4 4 4 4 4 4 4 4 4 4 4 4 4 3 3 3 3 3 3 3 3 2 2
0 1 1 1 2 2 2 2 2 3 3 3 3 3 3 4 4 4 4 4 4 4 4 4 4 4 4 4 4 3 3 3 3 3 3 2 2 2 2 2 2 2 2
-0 -0 0 0 1 1 1 1 2 2 2 2 2 3 3 3 3 3 3 3 3 3 3 3 3 3 3 3 3 3 3 3 2 2 2 2 2 2 2 1 1 1 1
-1 -1 -1 -0 -0 0 0 1 1 1 1 1 1 2 2 2 2 2 2 2 2 2 2 2 2 2 2 2 2 2 2 2 2 2 2 1 1 1 1 1 1 1 1
-2 -1 -1 -1 -1 -0 -0 0 0 1 1 1 1 1 1 1 1 1 2 2 2 2 2 2 2 2 1 1 1 2 2 2 1 1 1 1 1 1 1 1 0 0 -0
-2 -2 -2 -1 -1 -1 -1 -0 -0 -0 0 0 0 0 0 0 1 1 1 1 1 1 1 1 1 1 1 1 1 1 1 1 1 0 0 0 0 0 0 0 0 -0 -0
-3 -2 -2 -2 -2 -1 -1 -1 -1 -1 -1 -0 -0 -0 -0 -0 -0 0 0 0 0 0 0 0 0 0 0 0 0 0 0 0 -0 -0 -0 -0 -0 -0 -0 -0 -1 -1 -1
-3 -3 -3 -2 -2 -2 -2 -2 -2 -1 -1 -1 -1 -1 -1 -1 -1 -0 -0 -0 -0 -0 -0 -1 -1 -1 -0 -0 -0 -0 -0 -0 -1 -1 -1 -1 -1 -1 -1 -1 -1 -1 -1
-4 -3 -3 -3 -3 -2 -2 -2 -2 -2 -2 -2 -1 -1 -1 -1 -1 -1 -1 -1 -1 -1 -1 -1 -1 -1 -1 -1 -1 -1 -1 -1 -1 -1 -1 -1 -1 -1 -2 -2 -2 -2 -2
-4 -4 -4 -3 -3 -3 -3 -3 -3 -3 -2 -2 -2 -2 -2 -2 -2 -2 -2 -2 -2 -2 -2 -2 -2 -2 -2 -2 -2 -2 -2 -2 -2 -2 -2 -2 -2 -2 -2 -2 -3 -3 -3
-5 -5 -5 -4 -4 -4 -4 -4 -4 -3 -3 -3 -3 -3 -3 -3 -3 -2 -2 -2 -2 -2 -2 -2 -2 -2 -2 -2 -2 -2 -2 -2 -2 -2 -2 -3 -3 -3 -3 -3 -3 -4 -4
-6 -6 -5 -5 -5 -4 -4 -4 -4 -4 -4 -3 -3 -3 -3 -3 -3 -3 -3 -3 -3 -3 -3 -3 -3 -3 -3 -3 -3 -3 -3 -3 -3 -3 -3 -3 -3 -4 -4 -4 -4 -4 -4
-6 -6 -6 -5 -5 -5 -5 -5 -5 -4 -4 -4 -4 -4 -4 -4 -4 -4 -4 -3 -3 -3 -3 -3 -3 -3 -3 -4 -4 -3 -4 -4 -4 -4 -4 -4 -4 -4 -4 -4 -5 -5 -5
-7 -6 -6 -6 -6 -6 -5 -5 -5 -5 -5 -5 -5 -4 -4 -4 -4 -4 -4 -4 -4 -4 -4 -4 -4 -4 -4 -4 -4 -4 -4 -4 -4 -4 -4 -4 -5 -5 -5 -5 -5 -5 -5
-7 -7 -7 -6 -6 -6 -6 -6 -6 -5 -5 -5 -5 -5 -5 -5 -5 -5 -5 -5 -5 -5 -4 -4 -4 -4 -4 -4 -5 -5 -5 -5 -5 -5 -5 -5 -5 -5 -5 -5 -5 -6 -6
-8 -7 -7 -7 -7 -6 -6 -6 -6 -6 -6 -6 -5 -5 -5 -5 -5 -5 -5 -5 -5 -5 -5 -5 -5 -5 -5 -5 -5 -5 -5 -5 -5 -6 -6 -6 -6 -6 -6 -6 -6 -6 -6
-8 -8 -7 -7 -7 -7 -7 -7 -6 -6 -6 -6 -6 -6 -6 -6 -6 -6 -5 -5 -6 -6 -5 -5 -5 -6 -6 -6 -6 -6 -6 -6 -6 -6 -6 -6 -6 -7 -7 -7 -7 -7 -7
-8 -8 -8 -8 -8 -7 -7 -7 -7 -7 -7 -7 -7 -7 -6 -6 -6 -6 -6 -6 -6 -6 -6 -6 -6 -6 -6 -6 -6 -6 -6 -6 -7 -7 -7 -7 -7 -7 -7 -7 -7 -7 -7
-9 -9 -8 -8 -8 -8 -8 -8 -8 -7 -7 -7 -7 -7 -7 -7 -7 -7 -7 -7 -7 -7 -7 -6 -6 -6 -6 -6 -6 -7 -7 -7 -7 -7 -7 -7 -7 -7 -8 -8 -8 -8 -8
-9 -9 -9 -9 -8 -8 -8 -8 -8 -8 -8 -8 -8 -7 -7 -7 -7 -7 -7 -7 -7 -7 -7 -7 -7 -7 -7 -7 -7 -7 -7 -7 -7 -7 -8 -8 -8 -8 -8 -8 -8 -8 -8
Wind_Speed
2 2 2 2 3 3 3 3 3 3 4 4 4 5 5 4 4 4 4 4 5 4 4 4 4 4 3 3 2 2 2 2 3 1 0 0 1 1 2 3 3 3 3
1 1 2 2 3 3 3 3 3 3 3 4 4 5 5 5 5 5 5 5 5 5 5 4 4 3 4 3 3 3 3 2 3 3 1 0 0 0 1 2 2 2 3
1 1 1 1 2 3 3 3 3 3 3 3 4 4 5 5 5 5 5 5 5 5 5 5 4 4 4 3 3 3 3 2 2 3 1 1 0 0 0 1 2 2 3
1 1 1 1 2 2 2 2 3 3 3 3 4 4 4 4 4 4 5 4 4 3 3 4 4 5 5 5 4 4 3 3 2 2 1 1 0 0 1 0 1 2 2
1 1 0 1 1 1 2 2 2 3 3 3 3 3 3 4 4 5 5 5 5 3 3 3 3 4 4 4 3 4 4 3 3 2 2 1 1 1 1 1 1 2 2
1 1 1 1 0 1 2 2 2 2 2 3 4 4 4 3 5 7 6 5 5 5 4 3 3 3 4 4 5 5 5 4 4 3 2 2 2 2 1 1 1 1 2
2 1 1 0 0 1 1 2 2 2 2 3 3 4 4 4 6 7 7 5 5 4 4 4 3 3 4 4 4 4 3 3 4 4 4 3 3 3 2 1 1 2 2
2 2 1 1 0 1 1 2 2 2 3 3 3 4 4 4 6 7 7 5 4 4 4 4 5 4 4 5 5 4 2 1 2 2 3 3 2 3 3 2 2 1 1
3 3 2 1 0 1 1 1 2 2 2 3 3 4 4 3 5 6 6 5 4 4 3 4 5 4 6 7 6 5 3 1 2 3 3 3 2 2 3 2 1 0 2
4 3 2 1 0 1 1 1 1 2 3 3 3 3 4 4 5 5 6 4 5 4 3 3 5 5 6 7 5 5 4 2 2 2 2 2 2 2 2 2 2 2 1
4 3 2 2 1 0 1 1 2 2 3 3 4 3 3 3 4 5 5 4 5 5 4 3 3 6 6 6 5 4 5 4 3 3 2 1 2 1 1 1 1 2 2
4 3 2 2 1 1 2 2 2 3 4 4 4 3 2 2 3 4 4 4 4 4 4 3 4 6 5 5 4 5 5 4 3 3 2 1 0 0 1 1 1 2 3
4 3 2 2 2 1 2 2 2 3 3 3 3 3 2 2 2 4 4 4 4 3 3 5 5 5 4 3 4 5 4 3 3 2 2 2 1 1 0 0 0 1 1
4 3 2 2 2 2 1 2 2 2 2 3 3 3 2 2 1 2 2 3 4 3 4 5 5 5 3 3 3 2 2 3 3 3 2 1 1 0 0 1 1 1 1
4 3 2 2 2 2 2 1 1 1 2 3 3 3 3 2 2 3 3 3 3 4 4 3 2 2 2 2 1 1 2 2 2 2 2 1 1 1 1 1 1 1 2
4 3 2 2 1 1 2 3 4 2 2 2 2 2 2 2 4 4 4 4 5 7 4 3 3 3 3 2 2 1 1 1 2 2 2 2 1 1 1 1 1 2 3
3 3 2 1 1 1 1 1 2 3 4 2 2 2 2 4 4 4 4 4 5 5 3 3 3 3 2 2 2 2 2 1 1 2 2 2 2 2 2 2 2 2 3
3 4 3 1 1 0 0 1 1 1 1 1 1 2 3 3 4 4 5 4 2 2 2 2 2 2 2 2 2 2 2 1 1 1 2 2 2 2 2 3 3 3 4
3 2 2 1 1 1 0 0 1 1 1 0 1 1 1 2 3 3 3 2 3 2 2 2 2 2 2 2 2 2 2 2 2 2 2 3 3 3 3 3 4 5 4
3 4 3 2 1 1 1 1 1 1 1 1 1 1 1 1 2 1 1 1 2 2 2 2 2 2 2 2 2 2 2 2 2 3 3 3 3 3 4 4 4 4 4
3 3 4 3 1 1 0 0 0 1 1 1 1 1 2 2 2 2 1 1 2 2 2 2 2 2 2 2 2 3 3 3 3 3 3 3 3 3 3 3 4 4 4
3 3 2 2 2 1 1 1 0 0 0 1 1 1 1 1 1 1 1 1 1 2 2 2 3 3 3 3 3 3 3 4 4 3 3 3 3 3 3 4 4 4 4
3 3 3 2 2 2 2 1 1 0 1 1 1 1 1 1 1 1 2 2 1 2 2 2 3 3 3 4 5 5 5 5 5 5 4 4 4 4 4 4 5 5 5
3 3 2 2 2 2 2 2 1 1 1 1 1 1 1 2 2 2 2 2 2 2 2 3 3 4 5 5 5 6 7 7 7 7 7 6 5 5 4 5 5 6 6
3 3 3 2 2 2 2 2 2 2 2 2 2 2 2 2 2 2 2 2 2 3 3 4 4 4 5 6 6 7 7 8 8 7 7 6 6 5 5 5 5 5 5
3 3 3 2 2 2 2 2 2 2 2 2 2 2 2 2 2 2 2 2 3 3 3 4 4 5 6 6 7 7 8 8 8 8 7 5 5 5 5 5 6 5 5
Wind_Direction
161 165 163 171 166 158 164 177 178 174 166 170 173 173 175 173 170 176 184 176 183 189 183 185 196 182 181 183 172 166 172 170 206 231 212 355 38 28 16 32 26 26 9
157 153 167 166 158 164 176 184 175 180 179 178 172 178 180 178 177 181 187 184 187 192 194 191 201 187 189 187 180 183 184 178 185 210 218 235 283 295 61 55 18 10 354
56 111 129 161 172 184 187 180 175 180 185 178 174 184 185 182 179 185 187 186 190 194 192 192 196 186 196 192 185 182 177 166 167 178 200 222 252 228 20 35 33 3 338
39 93 140 200 201 196 183 176 182 182 185 188 186 191 192 184 182 181 179 178 178 181 183 187 189 190 197 193 186 179 164 152 146 153 172 197 229 209 131 253 335 337 336
24 40 294 296 232 178 175 176 183 186 192 187 181 185 185 182 184 175 172 169 164 159 158 164 171 174 179 178 174 169 162 157 153 158 173 185 196 198 218 221 268 311 321
5 350 355 5 159 182 180 170 169 181 184 171 177 178 184 192 180 179 171 164 161 160 158 155 148 149 150 150 151 152 158 165 170 174 190 193 216 224 218 210 225 292 296
358 2 17 48 172 189 173 155 170 181 172 170 172 170 175 175 173 175 173 159 155 160 161 155 148 136 128 126 123 124 125 147 169 177 183 204 210 215 202 217 232 242 259
356 355 4 11 203 148 147 162 171 158 154 156 157 154 150 158 162 162 163 147 142 148 157 160 157 154 147 138 127 115 110 107 154 162 172 188 194 189 195 205 214 240 278
356 346 338 344 126 145 149 157 157 144 142 140 141 141 141 143 149 148 149 138 138 142 145 147 151 152 155 147 138 134 122 106 114 148 160 158 159 170 168 134 154 235 287
337 333 333 339 339 175 178 165 143 144 144 131 123 130 139 139 144 145 144 141 143 139 130 141 160 165 163 160 156 155 162 173 142 112 102 100 107 119 152 164 196 218 257
329 333 343 354 336 182 141 128 127 131 126 124 120 116 123 133 142 147 150 151 156 151 154 158 165 166 167 168 168 171 180 165 145 139 124 97 77 74 79 167 197 211 227
341 347 358 9 8 54 108 112 119 128 127 125 121 112 105 115 124 137 141 146 152 152 159 159 161 161 163 166 167 162 161 151 137 138 139 147 164 251 258 213 233 240 240
357 2 11 17 23 49 103 120 119 122 133 138 136 131 119 105 118 130 138 140 139 139 144 152 152 151 144 143 153 157 154 148 148 158 179 208 217 220 173 135 320 277 278
3 2 16 35 37 47 79 114 130 143 145 145 147 144 135 122 118 131 139 143 143 138 135 139 135 126 118 124 129 139 152 163 169 178 186 194 175 174 229 236 255 279 288
3 6 17 32 52 61 64 70 119 145 168 163 168 169 166 172 185 167 154 152 151 149 135 123 120 124 122 118 120 132 141 147 159 169 176 177 185 205 244 250 252 268 261
360 2 8 20 46 75 87 58 42 63 82 111 151 160 163 166 160 160 154 151 153 151 138 144 151 153 159 166 170 171 171 178 182 180 182 190 206 224 249 265 253 249 260
353 345 349 4 26 69 119 117 80 46 53 70 103 136 153 152 152 155 151 146 150 147 135 148 161 170 173 173 178 190 207 202 183 184 197 210 220 233 244 256 255 260 267
347 338 337 336 338 346 164 155 149 140 98 39 46 112 137 146 147 150 150 137 136 131 144 161 171 175 180 184 189 194 195 188 193 203 211 218 224 231 240 248 250 252 264
341 335 330 334 340 341 56 114 117 120 132 116 67 95 115 134 134 136 139 142 157 169 171 175 181 184 188 190 192 195 196 204 214 218 225 228 227 228 240 247 251 258 263
335 338 343 343 358 19 46 88 111 135 164 179 208 216 169 135 145 149 142 148 165 181 189 197 200 196 192 192 191 195 203 216 223 229 233 234 235 234 240 247 251 256 258
334 337 348 352 360 2 11 337 235 211 208 212 248 241 186 167 175 181 186 188 194 199 203 209 213 211 208 205 207 213 217 222 225 228 231 232 231 241 246 248 252 257 260
339 339 346 350 350 347 343 334 316 288 250 234 254 263 206 163 183 197 207 229 224 213 214 214 218 220 215 213 212 214 221 225 228 228 232 236 236 241 245 249 252 258 263
345 345 346 346 347 347 351 352 346 322 279 261 252 255 242 221 215 218 223 232 239 243 237 226 227 233 234 233 228 221 219 223 225 222 228 237 240 242 244 246 250 258 262
340 339 340 339 341 342 336 328 314 300 287 276 264 255 254 254 249 243 238 243 247 251 248 244 239 238 240 245 247 243 239 238 235 232 227 230 238 241 242 246 250 254 258
333 333 335 333 328 324 319 312 306 302 295 284 273 268 264 267 268 264 259 255 250 251 254 255 253 249 247 250 253 253 245 241 242 242 236 228 232 238 240 244 247 251 254
326 324 322 318 312 308 302 299 299 300 292 285 279 274 274 272 271 272 271 265 262 261 262 263 258 257 259 262 259 253 249 248 248 248 243 233 229 238 239 244 244 248 254
Height
1479 1482 1485 1488 1491 1494 1496 1499 1502 1504 1507 1509 1511 1513 1515 1517 1519 1521 1523 1526 1528 1530 1532 1533 1535 1538 1539 1541 1542 1544 1545 1547 1547 1547 1549 1550 1550 1551 1551 1551 1551 1551 1551
1475 1479 1482 1485 1487 1490 1492 1495 1498 1500 1502 1505 1507 1509 1511 1513 1515 1517 1519 1521 1523 1525 1527 1529 1531 1533 1535 1537 1538 1540 1541 1543 1543 1543 1544 1546 1546 1547 1547 1548 1548 1548 1548
1472 1475 1478 1481 1483 1486 1489 1491 1494 1496 1498 1501 1503 1505 1507 1509 1511 1513 1515 1517 1519 1521 1523 1525 1527 1529 1531 1532 1534 1536 1537 1538 1539 1540 1540 1542 1542 1543 1543 1544 1544 1544 1544
1470 1472 1475 1477 1480 1482 1485 1487 1490 1492 1494 1497 1499 1501 1503 1505 1507 1509 1511 1513 1515 1517 1519 1521 1523 1525 1526 1528 1530 1531 1533 1534 1535 1536 1536 1537 1538 1539 1540 1540 1540 1540 1540
1467 1469 1472 1474 1476 1478 1481 1483 1485 1488 1490 1492 1494 1497 1499 1501 1503 1505 1507 1509 1511 1513 1515 1517 1519 1521 1522 1524 1526 1527 1529 1530 1531 1531 1532 1533 1534 1535 1536 1536 1536 1536 1536
1465 1467 1469 1471 1473 1475 1477 1479 1481 1483 1485 1488 1490 1492 1495 1497 1499 1502 1503 1505 1507 1509 1511 1513 1515 1517 1519 1520 1522 1523 1525 1526 1527 1528 1528 1529 1530 1531 1532 1532 1533 1533 1532
1463 1464 1466 1467 1469 1471 1473 1475 1477 1479 1481 1483 1486 1488 1491 1493 1496 1498 1500 1502 1504 1506 1508 1509 1511 1513 1515 1516 1518 1519 1520 1522 1523 1525 1525 1525 1526 1527 1528 1529 1529 1529 1529
1461 1462 1463 1464 1466 1468 1470 1472 1474 1476 1477 1480 1482 1485 1487 1489 1492 1494 1496 1498 1500 1502 1504 1506 1507 1509 1511 1512 1514 1515 1516 1518 1519 1521 1522 1522 1524 1524 1525 1526 1525 1525 1525
1458 1459 1461 1462 1463 1465 1467 1468 1471 1472 1474 1476 1479 1481 1483 1485 1488 1490 1492 1494 1496 1498 1500 1502 1504 1505 1507 1509 1510 1511 1513 1514 1516 1517 1518 1519 1520 1521 1522 1522 1522 1521 1520
1457 1458 1459 1460 1461 1462 1464 1466 1468 1469 1471 1473 1475 1478 1480 1482 1484 1486 1489 1490 1492 1494 1496 1498 1500 1502 1504 1505 1507 1508 1510 1511 1513 1514 1515 1516 1517 1517 1518 1518 1518 1518 1517
1455 1456 1457 1457 1459 1460 1461 1463 1465 1467 1468 1470 1472 1475 1477 1479 1481 1483 1485 1487 1489 1490 1492 1494 1496 1498 1500 1502 1504 1505 1507 1508 1509 1510 1511 1512 1513 1514 1514 1515 1515 1514 1514
1453 1454 1454 1455 1456 1457 1459 1460 1462 1464 1465 1467 1469 1471 1474 1476 1478 1480 1482 1484 1486 1487 1489 1491 1493 1495 1497 1499 1501 1502 1504 1505 1506 1507 1508 1509 1509 1510 1510 1511 1511 1510 1510
1451 1451 1452 1453 1454 1455 1456 1457 1459 1461 1462 1464 1466 1468 1470 1473 1475 1477 1479 1481 1482 1484 1486 1488 1490 1492 1493 1495 1497 1498 1500 1501 1502 1503 1504 1505 1505 1506 1506 1506 1506 1506 1506
1449 1450 1450 1451 1452 1453 1454 1455 1457 1458 1460 1462 1464 1465 1467 1469 1472 1473 1475 1477 1479 1481 1482 1484 1487 1488 1490 1491 1493 1495 1496 1497 1498 1499 1500 1501 1501 1502 1502 1502 1502 1502 1501
1448 1448 1449 1449 1450 1451 1452 1454 1455 1457 1459 1460 1461 1463 1464 1466 1468 1471 1472 1474 1476 1477 1479 1481 1483 1484 1486 1487 1489 1490 1492 1493 1494 1495 1496 1496 1497 1497 1497 1497 1497 1497 1496
1447 1447 1447 1448 1449 1450 1450 1452 1453 1455 1457 1458 1459 1461 1462 1464 1466 1468 1470 1471 1473 1475 1476 1477 1479 1480 1482 1483 1485 1486 1488 1489 1490 1491 1491 1492 1492 1492 1492 1493 1493 1492 1491
1446 1446 1446 1447 1447 1448 1449 1450 1451 1453 1454 1455 1457 1458 1460 1461 1463 1465 1466 1468 1470 1471 1473 1474 1475 1477 1478 1480 1481 1483 1484 1485 1486 1487 1487 1488 1488 1488 1488 1488 1488 1487 1487
1446 1446 1446 1446 1446 1447 1448 1449 1449 1450 1451 1452 1454 1456 1457 1459 1460 1462 1463 1465 1466 1467 1469 1470 1472 1473 1475 1476 1477 1479 1480 1481 1482 1482 1483 1483 1484 1484 1483 1483 1483 1482 1482
1445 1445 1445 1445 1445 1445 1446 1447 1447 1448 1449 1450 1451 1453 1454 1456 1457 1459 1460 1461 1462 1463 1465 1467 1468 1469 1471 1472 1474 1475 1476 1477 1478 1478 1479 1479 1479 1479 1479 1479 1478 1478 1477
1445 1444 1444 1444 1444 1444 1444 1445 1445 1446 1447 1448 1449 1450 1451 1453 1454 1455 1456 1458 1459 1460 1462 1463 1464 1466 1467 1468 1469 1471 1472 1472 1473 1473 1474 1474 1474 1474 1474 1474 1473 1473 1472
1443 1443 1443 1442 1442 1442 1443 1443 1444 1444 1445 1445 1446 1447 1448 1449 1450 1452 1453 1454 1456 1457 1458 1459 1461 1462 1463 1464 1465 1466 1467 1467 1468 1468 1469 1469 1469 1469 1469 1469 1469 1468 1467
1442 1442 1441 1441 1441 1441 1441 1441 1442 1442 1442 1443 1443 1445 1446 1446 1447 1448 1450 1451 1452 1454 1455 1456 1457 1458 1459 1459 1460 1461 1462 1462 1463 1463 1464 1464 1464 1464 1464 1464 1463 1463 1462
1441 1440 1440 1439 1439 1439 1439 1439 1439 1440 1440 1440 1441 1441 1442 1443 1444 1445 1446 1448 1449 1450 1451 1452 1453 1453 1454 1455 1455 1456 1457 1457 1458 1458 1459 1459 1459 1459 1459 1458 1458 1457 1457
1440 1439 1438 1438 1437 1437 1437 1437 1437 1437 1438 1438 1438 1439 1439 1440 1441 1442 1443 1444 1445 1446 1447 1447 1448 1449 1449 1450 1451 1451 1452 1452 1453 1453 1454 1454 1454 1454 1453 1453 1452 1452 1451
1439 1438 1437 1437 1436 1436 1435 1435 1435 1435 1435 1436 1436 1436 1436 1437 1437 1438 1439 1440 1441 1441 1442 1443 1443 1444 1444 1445 1445 1446 1446 1447 1447 1448 1448 1448 1448 1448 1448 1447 1447 1446 1446
1437 1436 1436 1435 1434 1434 1434 1433 1433 1433 1433 1433 1433 1433 1434 1434 1434 1435 1435 1436 1437 1437 1438 1438 1438 1439 1439 1440 1440 1440 1441 1441 1442 1442 1443 1443 1443 1443 1442 1442 1441 1441 1440